Home   Weather   Albany   Past weeks

Flag for USA Past Weather in Albany, New York, USA — Yesterday and Last 2 Weeks

Now
58 °F

Passing clouds.


Feels Like: 58 °F
Forecast: 54 / 73 °F
Wind: No wind

Location: Albany County Airport

Current Time: Apr 27, 2017 at 3:13:38 am

Latest Report: Apr 27, 2017 at 2:24 am


Visibility: 10 mi

Pressure: 29.84 "Hg

Humidity: 84%

Dew Point: 53 °F

Location of AlbanyLocation

Past Weather in Albany — Graph

°F

Albany Temperature Yesterday

Maximum temperature yesterday: 71 °F (at 4:51 pm)
Minimum temperature yesterday: 50 °F (at 12:51 am)
Average temperature yesterday: 57 °F

High & Low Weather Summary for the Past Weeks

 TemperatureHumidityPressure
High85 °F (Apr 16, 2:51 pm)93% (Apr 12, 5:51 am)30.48 "Hg (Apr 12, 5:51 am)
Low34 °F (Apr 14, 6:51 am)19% (Apr 14, 2:51 pm)29.65 "Hg (Apr 16, 4:51 pm)
Average53 °F63%30.11 "Hg
* Reported Apr 12 1:51 am — Apr 27 1:51 am, Albany, Weather by CustomWeather, © 2017

Note: Actual official high and low records may vary slightly from our data, if they occured in-between our weather recording intervals... More about our weather records

Advertising

Albany Weather History for the Previous 24 Hours

Scroll right to see more
 ConditionsComfort  
Time TempWeatherWind HumidityBarometerVisibility
1:51 am
Thu, Apr 27
57 °FPassing clouds.3 mph83%29.83 "Hg10 mi
1:06 am59 °FOvercast.3 mph81%29.84 "Hg10 mi
12:51 am60 °FPassing clouds.6 mph78%29.84 "Hg10 mi
11:51 pm
Wed, Apr 26
61 °FPassing clouds.5 mph75%29.84 "Hg10 mi
11:25 pm61 °FPassing clouds.8 mph75%29.83 "Hg10 mi
10:51 pm62 °FMostly cloudy.7 mph75%29.83 "Hg10 mi
10:32 pm62 °FMostly cloudy.7 mph75%29.83 "Hg10 mi
9:24 pm64 °FPassing clouds.10 mph70%29.82 "Hg10 mi
9:09 pm64 °FPartly cloudy.10 mph70%29.81 "Hg10 mi
8:51 pm66 °FMostly cloudy.8 mph73%29.80 "Hg10 mi
7:51 pm65 °FMostly cloudy.3 mph73%29.78 "Hg10 mi
6:51 pm67 °FPartly sunny.6 mph68%29.77 "Hg10 mi
5:51 pm69 °FPartly sunny.8 mph66%29.75 "Hg10 mi
4:51 pm71 °FPartly sunny.6 mph59%29.74 "Hg10 mi
3:51 pm69 °FPartly sunny.3 mph66%29.77 "Hg10 mi
2:51 pm66 °FPartly sunny.3 mph70%29.80 "Hg10 mi
1:51 pm66 °FBroken clouds.5 mph70%29.81 "Hg10 mi
12:51 pm62 °FMostly cloudy.6 mph78%29.83 "Hg10 mi
12:15 pm59 °FMostly cloudy.8 mph81%29.84 "Hg10 mi
11:51 am59 °FMore clouds than sun.6 mph84%29.85 "Hg10 mi
11:01 am57 °FDrizzle. Cloudy.7 mph87%29.85 "Hg10 mi
9:51 am54 °FMostly cloudy.5 mph90%29.86 "Hg10 mi
8:51 am52 °FDrizzle. Fog.6 mph93%29.87 "Hg3 mi
7:51 am51 °FDrizzle. Fog.6 mph89%29.88 "Hg5 mi
7:24 am51 °FLight rain. Fog.5 mph89%29.88 "Hg5 mi
6:51 am50 °FLight rain. Fog.5 mph93%29.87 "Hg2 mi
6:36 am50 °FDrizzle. Fog.6 mph93%29.87 "Hg3 mi
6:18 am50 °FDrizzle. Fog.6 mph93%29.88 "Hg2 mi
5:51 am50 °FDrizzle. Low clouds.5 mph93%29.88 "Hg8 mi
4:51 am50 °FDrizzle. Mostly cloudy.5 mph93%29.88 "Hg10 mi
4:15 am50 °FDrizzle. Mostly cloudy.5 mph89%29.89 "Hg10 mi
3:51 am50 °FDrizzle. Low clouds.7 mph93%29.89 "Hg10 mi
3:28 am50 °FMostly cloudy.5 mph93%29.91 "Hg10 mi
Weather by CustomWeather, © 2017

See weather overviewHow to use our weather pages